星链-1089 (STARLINK-1089 )

导读 | 星芒AI

STARLINK-1089 是 SpaceX 星链计划中的一颗低轨通信卫星,属于第十一组星链卫星星座的一部分。该卫星于2022年发射,运行在约550公里高度的近地轨道,旨在为全球用户提供高速互联网服务。作为星链系统的重要组成,它支持宽带通信,提升偏远地区的网络覆盖。星链项目计划部署数万颗卫星,构建全球性卫星互联网网络。STARLINK-1089 在轨运行稳定,为星链的全球服务能力和响应速度提供了保障。

基本信息
目录编号:
44967
目录名称:
STARLINK-1089
国际标识:
2020-001BF
轨道中心:
EARTH
卫星名称:
星链-1089
卫星全名:
星链-1089 (STARLINK-1089 )
卫星状态:
已陨落 最后检测时间 2024-10-15
发射日期:
2020-01-07 UTC
国别 :
美国 (US)
星等 :
--
轨道信息
数据来源 国际轨道数据
星历时间: 2024-10-12T12:41:03+0800
轨道信息已过期435天
半长轴: 6605.958km
偏心率: 0.000882
轨道倾角: 53.046°
近地点辐角 299.357°
升交点赤经 66.710°
平近点角 199.567°
近地点: 221.996km
远地点: 233.65km
周期: 89.056分钟
每日圈数: 16.169595
详细信息
固有亮度:
5
最大亮度:
2.5
卫星平台:
Starlink V1.0
覆盖范围:
全球
运营商:
太空探索技术公司
运营商所在国:
美国
制造商(研发单位):
太空探索技术公司
制造商所在国:
美国
使用方式:
暂无
卫星简介
星链(Starlink)计划是由太空探索技术公司(SpaceX)提出的一个巨型低轨卫星互联网星座项目,计划在2019年至2024年间在太空搭建由约1.2万颗卫星组成的“星链”网络,其中1584颗将部署在地球上空550千米处的近地轨道,并从2020年开始工作。该卫星仍在工作。